User: anonymous   Login
Location: Unspecified
(0.0000°N, 0.0000°E)
Time: 13:58:53
(UTC+00:00)
Language:

USA 229 - Orbit

View from above orbital plane
View from above orbital plane
View from above satellite
View from above satellite

Ground track
Ground track

The orbit data is extracted from the following two-line orbital elements,

1 37386U 11014A   16111.84298281 0.00000000  00000-0  00000-0 0    09
2 37386  63.4385  10.8712 0030000  10.4472 349.5527 13.40711402    06
Epoch (UTC): 20 April 2016 20:13:53
Eccentricity: 0.0030000
inclination: 63.4385°
perigee height: 1084 km
apogee height: 1129 km
right ascension of ascending node: 10.8712°
argument of perigee: 10.4472°
revolutions per day: 13.40711402
mean anomaly at epoch: 349.5527°
orbit number at epoch: 0

The dashed part of the orbit path shows where the satellite is in the earth's shadow,  

DLR